Aérodrome :
LOGIN :

S'inscrire | Disclaimer

   EN    FR    IT 

 










Légende :    VFR   VFR Marginal   IFR   IFR Intensif   IFR Très Intensif
Visi : 
Plafond : 
>= 8 km
>= 3000ft
5 à 8 km
1000 à 3000 ft
1500m à 5 km
500 à 1000 ft
800 à 1500m
200 à 500 ft
< 800m
< 200 ft
Symboles :   Orages  Brouillard  Fortes neiges  Fortes précipitations  Vent > 20 kt
SIGMETs :   Divers  Orages  Givrage  Turbulence  Onde Orograph.  Cendres Volcan.







- Altitude de l'aérodrome : 97 ft
- Code IATA : EBJ


EKEB - Esbjerg

DERNIER METAR :
  • 220620Z AUTO 03003KT 1400NDV R08/0700VP1500U R26/P1500N BR FEW007/// BKN031/// 00/M00 Q1027

METARs EXPIRÉS :
  • 220550Z AUTO 03003KT 2300NDV BR BKN006/// BKN030/// 01/01 Q1026
  • 220520Z AUTO 34002KT 2200NDV BR SCT008/// BKN028/// 02/01 Q1026

TAF AMD TAF EKEB
Valide du 22 à 06h jusqu'au 22 à 15h UTC


220630Z 2206/2215 05005KT 1200 BR BKN003
TEMPO 2206/2210 5000 SCT004 BKN020
BECMG 2210/2212 9999 NSW SCT006 BKN020
TEMPO 2212/2215 BKN008
Pas de NOTAMs connus pour ce terrain.



MET'MAP, la Météo Aéronautique d'un coup d'oeil ! - Copyright ORBIFLY Décembre 2007 - Disclaimer

ORBIFLY MET'MAP TEAM :

Programmation & Développement : Alexandra Zaïnal
Conception & Développement : Baudouin d'Aumeries
Co-Programmation & Développement : Marc-Olivier Méhu
Soutien technique & logistique : Manuel Goepfert

Contact : metmap@orbifly.com




SOURCES & CREDITS :

   NOAA